Time,TemperatureF,DewpointF,PressureIn,WindDirection,WindDirectionDegrees,WindSpeedMPH,WindSpeedGustMPH,Humidity,HourlyPrecipIn,Conditions,Clouds,dailyrainin,SoftwareType,DateUTC
2013-11-25 00:03:00,48.6,38.5,27.49,WSW,248,0.0,0.2,68,0.00,,,0.00,WUHU216HW,2013-11-25 07:03:00,
2013-11-25 00:08:00,48.4,38.4,27.49,WSW,248,0.0,0.2,68,0.00,,,0.00,WUHU216HW,2013-11-25 07:08:00,
2013-11-25 00:13:00,48.4,38.4,27.49,NW,315,0.0,0.0,68,0.00,,,0.00,WUHU216HW,2013-11-25 07:13:00,
2013-11-25 00:18:00,48.2,38.2,27.49,NW,315,0.0,0.0,68,0.00,,,0.00,WUHU216HW,2013-11-25 07:18:00,
2013-11-25 00:23:00,48.1,38.0,27.49,NW,315,0.0,0.0,68,0.00,,,0.00,WUHU216HW,2013-11-25 07:23:00,
2013-11-25 00:28:00,47.9,37.8,27.49,North,0,0.0,0.0,68,0.00,,,0.00,WUHU216HW,2013-11-25 07:28:00,
2013-11-25 00:33:00,47.5,37.9,27.49,North,0,0.0,0.0,69,0.00,,,0.00,WUHU216HW,2013-11-25 07:33:00,
2013-11-25 00:38:00,47.2,37.5,27.49,North,0,0.0,0.0,69,0.00,,,0.00,WUHU216HW,2013-11-25 07:38:00,
2013-11-25 00:43:00,47.2,37.9,27.49,North,0,0.0,0.0,70,0.00,,,0.00,WUHU216HW,2013-11-25 07:43:00,
2013-11-25 00:48:00,47.0,37.7,27.49,North,0,0.0,0.0,70,0.00,,,0.00,WUHU216HW,2013-11-25 07:48:00,
2013-11-25 00:53:00,46.8,37.6,27.49,North,0,0.0,0.0,70,0.00,,,0.00,WUHU216HW,2013-11-25 07:53:00,
2013-11-25 00:58:00,46.8,37.6,27.49,North,0,0.0,0.0,70,0.00,,,0.00,WUHU216HW,2013-11-25 07:58:00,
2013-11-25 01:03:00,46.4,37.6,27.49,North,0,0.0,0.0,71,0.00,,,0.00,WUHU216HW,2013-11-25 08:03:00,
2013-11-25 01:08:00,46.1,37.3,27.48,North,0,0.0,0.0,71,0.00,,,0.00,WUHU216HW,2013-11-25 08:08:00,
2013-11-25 01:13:00,45.9,37.5,27.48,ENE,68,0.0,0.2,72,0.00,,,0.00,WUHU216HW,2013-11-25 08:13:00,
2013-11-25 01:18:00,45.7,37.3,27.48,ENE,68,0.0,0.2,72,0.00,,,0.00,WUHU216HW,2013-11-25 08:18:00,
2013-11-25 01:23:00,45.7,37.3,27.48,ENE,68,0.0,0.0,72,0.00,,,0.00,WUHU216HW,2013-11-25 08:23:00,
2013-11-25 01:28:00,45.7,37.3,27.48,North,0,0.0,0.0,72,0.00,,,0.00,WUHU216HW,2013-11-25 08:28:00,
2013-11-25 01:33:00,45.5,37.1,27.48,North,0,0.0,0.0,72,0.00,,,0.00,WUHU216HW,2013-11-25 08:33:00,
2013-11-25 01:38:00,45.4,36.9,27.48,North,0,0.0,0.0,72,0.00,,,0.00,WUHU216HW,2013-11-25 08:38:00,
2013-11-25 01:43:00,45.4,36.9,27.48,North,0,0.0,0.0,72,0.00,,,0.00,WUHU216HW,2013-11-25 08:43:00,
2013-11-25 01:48:00,45.2,37.0,27.48,North,0,0.0,0.0,73,0.00,,,0.00,WUHU216HW,2013-11-25 08:48:00,
2013-11-25 01:53:00,45.2,37.0,27.48,North,0,0.0,0.0,73,0.00,,,0.00,WUHU216HW,2013-11-25 08:53:00,
2013-11-25 01:58:00,45.0,36.8,27.48,North,0,0.0,0.0,73,0.00,,,0.00,WUHU216HW,2013-11-25 08:58:00,
2013-11-25 02:03:00,44.8,36.6,27.48,North,0,0.0,0.0,73,0.00,,,0.00,WUHU216HW,2013-11-25 09:03:00,
2013-11-25 02:08:00,44.5,36.6,27.48,North,0,0.0,0.0,74,0.00,,,0.00,WUHU216HW,2013-11-25 09:08:00,
2013-11-25 02:13:00,44.3,36.5,27.48,North,0,0.0,0.0,74,0.00,,,0.00,WUHU216HW,2013-11-25 09:13:00,
2013-11-25 02:18:00,44.3,36.5,27.48,NNE,23,0.0,0.0,74,0.00,,,0.00,WUHU216HW,2013-11-25 09:18:00,
2013-11-25 02:23:00,44.3,36.5,27.48,East,90,0.0,0.0,74,0.00,,,0.00,WUHU216HW,2013-11-25 09:23:00,
2013-11-25 02:28:00,44.1,36.4,27.48,East,90,0.0,0.0,74,0.00,,,0.00,WUHU216HW,2013-11-25 09:28:00,
2013-11-25 02:33:00,43.9,36.2,27.48,East,90,0.0,0.0,74,0.00,,,0.00,WUHU216HW,2013-11-25 09:33:00,
2013-11-25 02:38:00,43.7,36.0,27.48,East,90,0.0,0.0,74,0.00,,,0.00,WUHU216HW,2013-11-25 09:38:00,
2013-11-25 02:43:00,43.6,35.8,27.48,East,90,0.0,0.0,74,0.00,,,0.00,WUHU216HW,2013-11-25 09:43:00,
2013-11-25 02:48:00,43.4,35.6,27.48,East,90,0.0,0.0,74,0.00,,,0.00,WUHU216HW,2013-11-25 09:48:00,
2013-11-25 02:53:00,43.2,35.8,27.48,East,90,0.0,0.0,75,0.00,,,0.00,WUHU216HW,2013-11-25 09:53:00,
2013-11-25 02:58:00,43.2,35.8,27.48,ENE,68,0.0,0.0,75,0.00,,,0.00,WUHU216HW,2013-11-25 09:58:00,
2013-11-25 03:03:00,43.2,35.8,27.48,ENE,68,0.0,0.0,75,0.00,,,0.00,WUHU216HW,2013-11-25 10:03:00,
2013-11-25 03:08:00,43.2,35.8,27.48,ENE,68,0.0,0.0,75,0.00,,,0.00,WUHU216HW,2013-11-25 10:08:00,
2013-11-25 03:13:00,43.2,35.8,27.48,ENE,68,0.0,0.0,75,0.00,,,0.00,WUHU216HW,2013-11-25 10:13:00,
2013-11-25 03:18:00,43.0,35.7,27.48,ENE,68,0.0,0.0,75,0.00,,,0.00,WUHU216HW,2013-11-25 10:18:00,
2013-11-25 03:23:00,43.0,35.7,27.48,ENE,68,0.0,0.0,75,0.00,,,0.00,WUHU216HW,2013-11-25 10:23:00,
2013-11-25 03:28:00,42.8,35.5,27.48,ENE,68,0.0,0.0,75,0.00,,,0.00,WUHU216HW,2013-11-25 10:28:00,
2013-11-25 03:33:00,42.8,35.5,27.48,ENE,68,0.0,0.0,75,0.00,,,0.00,WUHU216HW,2013-11-25 10:33:00,
2013-11-25 03:38:00,42.8,35.5,27.48,ENE,68,0.0,0.0,75,0.00,,,0.00,WUHU216HW,2013-11-25 10:38:00,
2013-11-25 03:43:00,42.8,35.5,27.47,ENE,68,0.0,0.0,75,0.00,,,0.00,WUHU216HW,2013-11-25 10:43:00,
2013-11-25 03:48:00,42.7,35.3,27.47,ENE,68,0.0,0.0,75,0.00,,,0.00,WUHU216HW,2013-11-25 10:48:00,
2013-11-25 03:53:00,42.5,35.5,27.47,ENE,68,0.0,0.0,76,0.00,,,0.00,WUHU216HW,2013-11-25 10:53:00,
2013-11-25 03:58:00,42.5,35.5,27.47,ENE,68,0.0,0.0,76,0.00,,,0.00,WUHU216HW,2013-11-25 10:58:00,
2013-11-25 04:03:00,42.5,35.5,27.47,ENE,68,0.0,0.0,76,0.00,,,0.00,WUHU216HW,2013-11-25 11:03:00,
2013-11-25 04:08:00,42.3,35.3,27.47,ENE,68,0.0,0.0,76,0.00,,,0.00,WUHU216HW,2013-11-25 11:08:00,
2013-11-25 04:13:00,42.1,35.1,27.48,ENE,68,0.0,0.0,76,0.00,,,0.00,WUHU216HW,2013-11-25 11:13:00,
2013-11-25 04:18:00,42.1,35.4,27.47,ENE,68,0.0,0.0,77,0.00,,,0.00,WUHU216HW,2013-11-25 11:18:00,
2013-11-25 04:23:00,42.1,35.4,27.47,ENE,68,0.0,0.0,77,0.00,,,0.00,WUHU216HW,2013-11-25 11:23:00,
2013-11-25 04:28:00,41.9,35.2,27.48,ENE,68,0.0,0.0,77,0.00,,,0.00,WUHU216HW,2013-11-25 11:28:00,
2013-11-25 04:33:00,41.9,35.2,27.48,ENE,68,0.0,0.0,77,0.00,,,0.00,WUHU216HW,2013-11-25 11:33:00,
2013-11-25 04:38:00,41.8,35.0,27.47,ENE,68,0.0,0.0,77,0.00,,,0.00,WUHU216HW,2013-11-25 11:38:00,
2013-11-25 04:43:00,41.4,34.7,27.47,ENE,68,0.0,0.0,77,0.00,,,0.00,WUHU216HW,2013-11-25 11:43:00,
2013-11-25 04:48:00,41.4,34.7,27.47,ENE,68,0.0,0.0,77,0.00,,,0.00,WUHU216HW,2013-11-25 11:48:00,
2013-11-25 04:53:00,41.2,34.5,27.48,ENE,68,0.0,0.0,77,0.00,,,0.00,WUHU216HW,2013-11-25 11:53:00,
2013-11-25 04:58:00,41.0,34.3,27.48,ENE,68,0.0,0.0,77,0.00,,,0.00,WUHU216HW,2013-11-25 11:58:00,
2013-11-25 05:03:00,41.0,34.3,27.48,SE,135,0.0,0.4,77,0.00,,,0.00,WUHU216HW,2013-11-25 12:03:00,
2013-11-25 05:08:00,41.0,34.3,27.48,SE,135,0.0,0.4,77,0.00,,,0.00,WUHU216HW,2013-11-25 12:08:00,
2013-11-25 05:13:00,41.2,34.5,27.48,SE,135,0.0,0.0,77,0.00,,,0.00,WUHU216HW,2013-11-25 12:13:00,
2013-11-25 05:18:00,41.0,34.3,27.48,SE,135,0.0,0.0,77,0.00,,,0.00,WUHU216HW,2013-11-25 12:18:00,
2013-11-25 05:23:00,41.0,34.3,27.48,ESE,113,0.0,0.0,77,0.00,,,0.00,WUHU216HW,2013-11-25 12:23:00,
2013-11-25 05:28:00,41.0,34.3,27.49,ESE,113,0.0,0.0,77,0.00,,,0.00,WUHU216HW,2013-11-25 12:28:00,
2013-11-25 05:33:00,41.0,34.3,27.49,ESE,113,0.0,0.0,77,0.00,,,0.00,WUHU216HW,2013-11-25 12:33:00,
2013-11-25 05:38:00,41.0,34.3,27.49,ESE,113,0.0,0.0,77,0.00,,,0.00,WUHU216HW,2013-11-25 12:38:00,
2013-11-25 05:43:00,41.0,34.3,27.49,NE,45,0.0,0.0,77,0.00,,,0.00,WUHU216HW,2013-11-25 12:43:00,
2013-11-25 05:48:00,41.0,34.3,27.50,NE,45,0.0,0.0,77,0.00,,,0.00,WUHU216HW,2013-11-25 12:48:00,
2013-11-25 05:53:00,40.9,34.1,27.50,North,0,0.0,0.0,77,0.00,,,0.00,WUHU216HW,2013-11-25 12:53:00,
2013-11-25 05:58:00,40.7,34.3,27.50,NNW,338,0.0,0.4,78,0.00,,,0.00,WUHU216HW,2013-11-25 12:58:00,
2013-11-25 06:03:00,40.7,34.3,27.50,NNW,338,0.0,0.4,78,0.00,,,0.00,WUHU216HW,2013-11-25 13:03:00,
2013-11-25 06:08:00,40.9,34.5,27.50,NNW,338,0.0,0.0,78,0.00,,,0.00,WUHU216HW,2013-11-25 13:08:00,
2013-11-25 06:13:00,40.9,34.5,27.50,ENE,68,0.0,0.0,78,0.01,,,0.00,WUHU216HW,2013-11-25 13:13:00,
2013-11-25 06:18:00,40.7,34.3,27.50,ENE,68,0.0,0.0,78,0.01,,,0.00,WUHU216HW,2013-11-25 13:18:00,
2013-11-25 06:23:00,40.5,34.1,27.50,ENE,68,0.0,0.0,78,0.01,,,0.00,WUHU216HW,2013-11-25 13:23:00,
2013-11-25 06:28:00,40.1,33.9,27.50,ENE,68,0.0,0.0,78,0.01,,,0.00,WUHU216HW,2013-11-25 13:28:00,
2013-11-25 06:33:00,40.1,34.1,27.50,NE,45,0.0,0.4,79,0.01,,,0.00,WUHU216HW,2013-11-25 13:33:00,
2013-11-25 06:38:00,40.3,34.3,27.50,NE,45,0.0,0.4,79,0.01,,,0.00,WUHU216HW,2013-11-25 13:38:00,
2013-11-25 06:43:00,40.3,34.3,27.50,NE,45,0.0,0.4,79,0.01,,,0.00,WUHU216HW,2013-11-25 13:43:00,
2013-11-25 06:48:00,40.3,34.7,27.50,ENE,68,0.0,0.4,80,0.01,,,0.00,WUHU216HW,2013-11-25 13:48:00,
2013-11-25 06:53:00,40.7,34.9,27.50,East,90,0.2,0.2,80,0.01,,,0.00,WUHU216HW,2013-11-25 13:53:00,
2013-11-25 06:58:00,40.7,34.9,27.50,ENE,68,0.0,0.9,80,0.01,,,0.00,WUHU216HW,2013-11-25 13:58:00,
2013-11-25 07:03:00,40.9,35.1,27.50,NE,45,0.0,0.9,80,0.01,,,0.00,WUHU216HW,2013-11-25 14:03:00,
2013-11-25 07:08:00,41.0,34.9,27.50,NE,45,0.0,0.0,79,0.01,,,0.00,WUHU216HW,2013-11-25 14:08:00,
2013-11-25 07:13:00,41.0,34.9,27.50,NE,45,0.0,0.0,79,0.00,,,0.00,WUHU216HW,2013-11-25 14:13:00,
2013-11-25 07:18:00,41.2,35.1,27.50,NE,45,0.0,0.0,79,0.00,,,0.00,WUHU216HW,2013-11-25 14:18:00,
2013-11-25 07:23:00,41.2,35.1,27.50,North,0,0.2,0.2,79,0.00,,,0.00,WUHU216HW,2013-11-25 14:23:00,
2013-11-25 07:28:00,41.0,34.9,27.50,North,0,0.0,0.4,79,0.00,,,0.00,WUHU216HW,2013-11-25 14:28:00,
2013-11-25 07:33:00,41.0,34.9,27.50,North,0,0.0,0.4,79,0.00,,,0.00,WUHU216HW,2013-11-25 14:33:00,
2013-11-25 07:38:00,41.2,35.1,27.51,North,0,0.0,0.0,79,0.00,,,0.00,WUHU216HW,2013-11-25 14:38:00,
2013-11-25 07:43:00,41.4,35.3,27.51,North,0,0.0,0.0,79,0.00,,,0.00,WUHU216HW,2013-11-25 14:43:00,
2013-11-25 07:48:00,41.4,35.6,27.51,North,0,0.0,0.0,80,0.00,,,0.00,WUHU216HW,2013-11-25 14:48:00,
2013-11-25 07:53:00,41.6,35.8,27.51,North,0,0.0,0.0,80,0.00,,,0.00,WUHU216HW,2013-11-25 14:53:00,
2013-11-25 07:58:00,41.9,36.5,27.51,SW,225,1.1,1.6,81,0.00,,,0.00,WUHU216HW,2013-11-25 14:58:00,
2013-11-25 08:03:00,42.1,36.6,27.52,WSW,248,0.4,1.6,81,0.00,,,0.00,WUHU216HW,2013-11-25 15:03:00,
2013-11-25 08:08:00,42.1,36.4,27.52,SW,225,0.0,1.3,80,0.00,,,0.00,WUHU216HW,2013-11-25 15:08:00,
2013-11-25 08:13:00,42.3,36.5,27.52,WSW,248,0.2,1.1,80,0.00,,,0.00,WUHU216HW,2013-11-25 15:13:00,
2013-11-25 08:18:00,42.7,36.9,27.52,North,0,0.2,1.3,80,0.00,,,0.00,WUHU216HW,2013-11-25 15:18:00,
2013-11-25 08:23:00,42.8,37.1,27.52,NNW,338,0.0,1.3,80,0.00,,,0.00,WUHU216HW,2013-11-25 15:23:00,
2013-11-25 08:28:00,43.0,36.9,27.52,NW,315,0.4,0.9,79,0.00,,,0.00,WUHU216HW,2013-11-25 15:28:00,
2013-11-25 08:33:00,43.2,37.1,27.52,NNE,23,0.4,0.9,79,0.00,,,0.00,WUHU216HW,2013-11-25 15:33:00,
2013-11-25 08:38:00,43.6,37.4,27.52,North,0,0.4,0.9,79,0.00,,,0.00,WUHU216HW,2013-11-25 15:38:00,
2013-11-25 08:43:00,43.7,37.4,27.53,NW,315,0.0,1.1,78,0.00,,,0.00,WUHU216HW,2013-11-25 15:43:00,
2013-11-25 08:48:00,44.1,37.7,27.52,SE,135,0.7,1.1,78,0.00,,,0.00,WUHU216HW,2013-11-25 15:48:00,
2013-11-25 08:53:00,44.5,37.7,27.52,West,270,0.0,1.1,77,0.00,,,0.00,WUHU216HW,2013-11-25 15:53:00,
2013-11-25 08:58:00,44.6,37.9,27.52,NNE,23,0.4,0.7,77,0.00,,,0.00,WUHU216HW,2013-11-25 15:58:00,
2013-11-25 09:03:00,45.0,38.3,27.52,ENE,68,0.4,1.1,77,0.00,,,0.00,WUHU216HW,2013-11-25 16:03:00,
2013-11-25 09:08:00,45.4,38.3,27.52,North,0,0.0,1.1,76,0.00,,,0.00,WUHU216HW,2013-11-25 16:08:00,
2013-11-25 09:13:00,45.5,38.4,27.52,NW,315,0.4,1.1,76,0.00,,,0.00,WUHU216HW,2013-11-25 16:13:00,
2013-11-25 09:18:00,45.7,38.3,27.53,NNE,23,0.7,0.9,75,0.00,,,0.00,WUHU216HW,2013-11-25 16:18:00,
2013-11-25 09:23:00,46.1,38.6,27.53,WSW,248,0.0,0.9,75,0.00,,,0.00,WUHU216HW,2013-11-25 16:23:00,
2013-11-25 09:28:00,46.4,38.6,27.53,NNW,338,1.8,2.0,74,0.00,,,0.00,WUHU216HW,2013-11-25 16:28:00,
2013-11-25 09:33:00,46.8,39.0,27.53,SW,225,0.0,2.0,74,0.00,,,0.00,WUHU216HW,2013-11-25 16:33:00,
2013-11-25 09:38:00,47.2,39.0,27.53,NNW,338,0.4,1.8,73,0.00,,,0.00,WUHU216HW,2013-11-25 16:38:00,
2013-11-25 09:43:00,47.3,38.8,27.53,West,270,0.9,1.8,72,0.00,,,0.00,WUHU216HW,2013-11-25 16:43:00,
2013-11-25 09:48:00,47.7,39.1,27.53,WSW,248,1.1,1.8,72,0.00,,,0.00,WUHU216HW,2013-11-25 16:48:00,
2013-11-25 09:53:00,47.9,38.9,27.53,WNW,293,1.8,2.0,71,0.00,,,0.00,WUHU216HW,2013-11-25 16:53:00,
2013-11-25 09:58:00,48.2,38.9,27.53,WSW,248,0.7,2.0,70,0.00,,,0.00,WUHU216HW,2013-11-25 16:58:00,
2013-11-25 10:03:00,48.6,39.2,27.53,NW,315,0.9,1.8,70,0.00,,,0.00,WUHU216HW,2013-11-25 17:03:00,
2013-11-25 10:08:00,48.8,39.1,27.54,SW,225,1.1,1.8,69,0.00,,,0.00,WUHU216HW,2013-11-25 17:08:00,
2013-11-25 10:13:00,49.1,39.0,27.54,NW,315,0.7,1.8,68,0.00,,,0.00,WUHU216HW,2013-11-25 17:13:00,
2013-11-25 10:18:00,49.3,39.2,27.53,WSW,248,0.4,1.8,68,0.00,,,0.00,WUHU216HW,2013-11-25 17:18:00,
2013-11-25 10:23:00,49.7,39.5,27.54,SW,225,1.1,2.5,68,0.00,,,0.00,WUHU216HW,2013-11-25 17:23:00,
2013-11-25 10:28:00,50.0,39.9,27.54,SW,225,1.3,2.7,68,0.00,,,0.00,WUHU216HW,2013-11-25 17:28:00,
2013-11-25 10:33:00,50.2,39.2,27.54,NW,315,0.9,2.7,66,0.00,,,0.00,WUHU216HW,2013-11-25 17:33:00,
2013-11-25 10:38:00,50.6,40.1,27.54,SSW,203,1.1,2.5,67,0.00,,,0.00,WUHU216HW,2013-11-25 17:38:00,
2013-11-25 10:43:00,50.8,40.2,27.54,West,270,1.1,2.5,67,0.00,,,0.00,WUHU216HW,2013-11-25 17:43:00,
2013-11-25 10:48:00,51.1,40.5,27.54,SW,225,1.8,4.0,67,0.00,,,0.00,WUHU216HW,2013-11-25 17:48:00,
2013-11-25 10:53:00,51.5,40.5,27.54,West,270,2.2,4.0,66,0.00,,,0.00,WUHU216HW,2013-11-25 17:53:00,
2013-11-25 10:58:00,51.7,40.2,27.54,SW,225,1.1,3.4,65,0.00,,,0.00,WUHU216HW,2013-11-25 17:58:00,
2013-11-25 11:03:00,52.0,40.6,27.54,West,270,0.4,3.4,65,0.00,,,0.00,WUHU216HW,2013-11-25 18:03:00,
2013-11-25 11:08:00,52.2,40.8,27.54,WSW,248,0.7,2.0,65,0.00,,,0.00,WUHU216HW,2013-11-25 18:08:00,
2013-11-25 11:13:00,52.2,40.3,27.53,WSW,248,0.4,1.8,64,0.00,,,0.00,WUHU216HW,2013-11-25 18:13:00,
2013-11-25 11:18:00,52.6,40.7,27.53,WNW,293,0.9,2.5,64,0.00,,,0.00,WUHU216HW,2013-11-25 18:18:00,
2013-11-25 11:23:00,52.6,40.3,27.53,WSW,248,1.8,2.5,63,0.00,,,0.00,WUHU216HW,2013-11-25 18:23:00,
2013-11-25 11:28:00,52.7,40.4,27.53,WSW,248,1.6,2.2,63,0.00,,,0.00,WUHU216HW,2013-11-25 18:28:00,
2013-11-25 11:33:00,52.9,40.6,27.53,SSW,203,0.9,1.8,63,0.00,,,0.00,WUHU216HW,2013-11-25 18:33:00,
2013-11-25 11:38:00,53.3,41.0,27.53,SW,225,1.1,2.5,63,0.00,,,0.00,WUHU216HW,2013-11-25 18:38:00,
2013-11-25 11:43:00,53.6,41.0,27.53,WSW,248,1.8,2.7,62,0.00,,,0.00,WUHU216HW,2013-11-25 18:43:00,
2013-11-25 11:48:00,53.8,41.1,27.52,SE,135,1.6,2.7,62,0.00,,,0.00,WUHU216HW,2013-11-25 18:48:00,
2013-11-25 11:53:00,54.0,41.2,27.52,WSW,248,2.5,2.7,62,0.00,,,0.00,WUHU216HW,2013-11-25 18:53:00,
2013-11-25 11:58:00,54.4,41.2,27.52,WSW,248,2.5,3.4,61,0.00,,,0.00,WUHU216HW,2013-11-25 18:58:00,
2013-11-25 12:03:00,54.9,41.7,27.51,WSW,248,3.4,3.4,61,0.00,,,0.00,WUHU216HW,2013-11-25 19:03:00,
2013-11-25 12:08:00,55.1,41.0,27.51,WNW,293,0.7,3.4,59,0.00,,,0.00,WUHU216HW,2013-11-25 19:08:00,
2013-11-25 12:13:00,55.1,41.0,27.51,WSW,248,0.7,3.4,59,0.00,,,0.00,WUHU216HW,2013-11-25 19:13:00,
2013-11-25 12:18:00,55.1,40.1,27.51,West,270,1.3,3.4,57,0.00,,,0.00,WUHU216HW,2013-11-25 19:18:00,
2013-11-25 12:23:00,55.3,40.7,27.51,SW,225,2.0,3.8,58,0.00,,,0.00,WUHU216HW,2013-11-25 19:23:00,
2013-11-25 12:28:00,55.4,40.9,27.51,SSW,203,3.4,3.8,58,0.00,,,0.00,WUHU216HW,2013-11-25 19:28:00,
2013-11-25 12:33:00,55.6,40.1,27.51,WSW,248,3.4,3.4,56,0.00,,,0.00,WUHU216HW,2013-11-25 19:33:00,
2013-11-25 12:38:00,55.6,40.5,27.51,SW,225,1.1,3.4,57,0.00,,,0.00,WUHU216HW,2013-11-25 19:38:00,
2013-11-25 12:43:00,55.8,40.7,27.51,SW,225,3.4,3.4,57,0.00,,,0.00,WUHU216HW,2013-11-25 19:43:00,
2013-11-25 12:48:00,56.2,40.6,27.50,WSW,248,1.1,3.8,56,0.00,,,0.00,WUHU216HW,2013-11-25 19:48:00,
2013-11-25 12:53:00,56.5,41.0,27.50,SW,225,2.2,4.0,56,0.00,,,0.00,WUHU216HW,2013-11-25 19:53:00,
2013-11-25 12:58:00,56.7,40.7,27.50,West,270,2.5,5.1,55,0.00,,,0.00,WUHU216HW,2013-11-25 19:58:00,
2013-11-25 13:03:00,56.7,41.1,27.50,ESE,113,0.4,5.1,56,0.00,,,0.00,WUHU216HW,2013-11-25 20:03:00,
2013-11-25 13:08:00,56.9,40.9,27.50,WNW,293,1.8,3.1,55,0.00,,,0.00,WUHU216HW,2013-11-25 20:08:00,
2013-11-25 13:13:00,56.9,40.0,27.50,West,270,1.6,3.1,53,0.00,,,0.00,WUHU216HW,2013-11-25 20:13:00,
2013-11-25 13:18:00,57.2,40.3,27.49,WSW,248,1.1,2.9,53,0.00,,,0.00,WUHU216HW,2013-11-25 20:18:00,
2013-11-25 13:23:00,57.2,40.3,27.49,West,270,0.7,2.5,53,0.00,,,0.00,WUHU216HW,2013-11-25 20:23:00,
2013-11-25 13:28:00,57.4,41.0,27.49,WSW,248,1.6,3.4,54,0.00,,,0.00,WUHU216HW,2013-11-25 20:28:00,
2013-11-25 13:33:00,57.8,41.2,27.49,WSW,248,0.9,3.6,54,0.00,,,0.00,WUHU216HW,2013-11-25 20:33:00,
2013-11-25 13:38:00,58.0,41.4,27.49,SSE,158,0.4,4.0,54,0.00,,,0.00,WUHU216HW,2013-11-25 20:38:00,
2013-11-25 13:43:00,58.3,41.8,27.49,WSW,248,1.8,4.0,54,0.00,,,0.00,WUHU216HW,2013-11-25 20:43:00,
2013-11-25 13:48:00,58.5,41.4,27.48,SW,225,1.6,4.7,53,0.00,,,0.00,WUHU216HW,2013-11-25 20:48:00,
2013-11-25 13:53:00,58.7,41.6,27.49,WSW,248,2.5,4.7,53,0.00,,,0.00,WUHU216HW,2013-11-25 20:53:00,
2013-11-25 13:58:00,58.7,40.7,27.48,SW,225,1.8,4.0,51,0.00,,,0.00,WUHU216HW,2013-11-25 20:58:00,
2013-11-25 14:03:00,58.7,41.6,27.48,WSW,248,1.8,3.8,53,0.00,,,0.00,WUHU216HW,2013-11-25 21:03:00,
2013-11-25 14:08:00,58.9,41.8,27.48,SW,225,2.0,3.1,53,0.00,,,0.00,WUHU216HW,2013-11-25 21:08:00,
2013-11-25 14:13:00,59.0,41.4,27.48,SW,225,2.5,3.6,52,0.00,,,0.00,WUHU216HW,2013-11-25 21:13:00,
2013-11-25 14:18:00,58.9,40.8,27.48,SW,225,3.6,3.6,51,0.00,,,0.00,WUHU216HW,2013-11-25 21:18:00,
2013-11-25 14:23:00,58.9,41.3,27.48,SW,225,2.7,3.6,52,0.00,,,0.00,WUHU216HW,2013-11-25 21:23:00,
2013-11-25 14:28:00,59.0,41.0,27.48,NNW,338,1.3,3.6,51,0.00,,,0.00,WUHU216HW,2013-11-25 21:28:00,
2013-11-25 14:33:00,58.7,40.1,27.48,WSW,248,2.5,2.7,50,0.00,,,0.00,WUHU216HW,2013-11-25 21:33:00,
2013-11-25 14:38:00,58.7,40.7,27.48,SW,225,2.5,2.5,51,0.00,,,0.00,WUHU216HW,2013-11-25 21:38:00,
2013-11-25 14:43:00,58.9,40.8,27.48,SSW,203,1.8,2.5,51,0.00,,,0.00,WUHU216HW,2013-11-25 21:43:00,
2013-11-25 14:48:00,59.0,40.5,27.48,WSW,248,1.1,2.5,50,0.00,,,0.00,WUHU216HW,2013-11-25 21:48:00,
2013-11-25 14:53:00,59.2,41.1,27.48,SW,225,1.8,2.5,51,0.00,,,0.00,WUHU216HW,2013-11-25 21:53:00,
2013-11-25 14:58:00,59.4,41.3,27.48,WSW,248,1.8,3.4,51,0.00,,,0.00,WUHU216HW,2013-11-25 21:58:00,
2013-11-25 15:03:00,59.2,40.7,27.48,North,0,1.1,3.4,50,0.00,,,0.00,WUHU216HW,2013-11-25 22:03:00,
2013-11-25 15:08:00,59.0,40.0,27.48,West,270,0.4,2.5,49,0.00,,,0.00,WUHU216HW,2013-11-25 22:08:00,
2013-11-25 15:13:00,59.2,40.7,27.48,WSW,248,1.3,2.7,50,0.00,,,0.00,WUHU216HW,2013-11-25 22:13:00,
2013-11-25 15:18:00,59.2,40.7,27.48,SW,225,0.4,2.7,50,0.00,,,0.00,WUHU216HW,2013-11-25 22:18:00,
2013-11-25 15:23:00,59.2,40.7,27.48,WSW,248,0.9,3.1,50,0.00,,,0.00,WUHU216HW,2013-11-25 22:23:00,
2013-11-25 15:28:00,59.6,41.5,27.48,WSW,248,0.7,3.1,51,0.00,,,0.00,WUHU216HW,2013-11-25 22:28:00,
2013-11-25 15:33:00,59.8,41.1,27.49,West,270,1.8,1.8,50,0.00,,,0.00,WUHU216HW,2013-11-25 22:33:00,
2013-11-25 15:38:00,59.8,41.1,27.48,WNW,293,1.8,1.8,50,0.00,,,0.00,WUHU216HW,2013-11-25 22:38:00,
2013-11-25 15:43:00,59.4,40.9,27.49,WSW,248,2.5,2.5,50,0.00,,,0.00,WUHU216HW,2013-11-25 22:43:00,
2013-11-25 15:48:00,59.4,40.2,27.48,WSW,248,1.1,2.5,49,0.00,,,0.00,WUHU216HW,2013-11-25 22:48:00,
2013-11-25 15:53:00,59.2,40.7,27.49,West,270,1.8,2.5,50,0.00,,,0.00,WUHU216HW,2013-11-25 22:53:00,
2013-11-25 15:58:00,59.2,40.7,27.49,West,270,1.6,3.6,50,0.00,,,0.00,WUHU216HW,2013-11-25 22:58:00,
2013-11-25 16:03:00,59.2,41.1,27.49,WSW,248,2.5,3.6,51,0.00,,,0.00,WUHU216HW,2013-11-25 23:03:00,
2013-11-25 16:08:00,59.2,41.1,27.49,WNW,293,1.1,2.5,51,0.00,,,0.00,WUHU216HW,2013-11-25 23:08:00,
2013-11-25 16:13:00,59.0,40.5,27.49,SW,225,0.7,2.5,50,0.00,,,0.00,WUHU216HW,2013-11-25 23:13:00,
2013-11-25 16:18:00,59.0,40.5,27.49,West,270,1.8,2.5,50,0.00,,,0.00,WUHU216HW,2013-11-25 23:18:00,
2013-11-25 16:23:00,58.9,40.8,27.49,West,270,2.0,2.2,51,0.00,,,0.00,WUHU216HW,2013-11-25 23:23:00,
2013-11-25 16:28:00,58.7,41.1,27.49,WSW,248,1.8,2.5,52,0.00,,,0.00,WUHU216HW,2013-11-25 23:28:00,
2013-11-25 16:33:00,58.7,41.1,27.49,SW,225,1.8,2.5,52,0.00,,,0.00,WUHU216HW,2013-11-25 23:33:00,
2013-11-25 16:38:00,58.7,41.1,27.49,West,270,0.7,1.8,52,0.00,,,0.00,WUHU216HW,2013-11-25 23:38:00,
2013-11-25 16:43:00,58.7,41.6,27.49,WSW,248,0.4,1.8,53,0.00,,,0.00,WUHU216HW,2013-11-25 23:43:00,
2013-11-25 16:48:00,58.5,41.4,27.49,West,270,0.7,1.3,53,0.00,,,0.00,WUHU216HW,2013-11-25 23:48:00,
2013-11-25 16:53:00,58.3,41.2,27.49,West,270,0.7,1.1,53,0.00,,,0.00,WUHU216HW,2013-11-25 23:53:00,
2013-11-25 16:58:00,58.1,41.6,27.49,NW,315,0.4,1.1,54,0.00,,,0.00,WUHU216HW,2013-11-25 23:58:00,
2013-11-25 17:03:00,58.1,41.6,27.50,WSW,248,0.2,1.1,54,0.00,,,0.00,WUHU216HW,2013-11-26 00:03:00,
2013-11-25 17:08:00,58.0,41.9,27.50,WSW,248,0.4,0.9,55,0.00,,,0.00,WUHU216HW,2013-11-26 00:08:00,
2013-11-25 17:13:00,58.0,41.9,27.50,WSW,248,0.0,1.6,55,0.00,,,0.00,WUHU216HW,2013-11-26 00:13:00,
2013-11-25 17:18:00,57.6,41.6,27.50,SW,225,0.4,1.6,55,0.00,,,0.00,WUHU216HW,2013-11-26 00:18:00,
2013-11-25 17:23:00,57.4,41.4,27.50,WSW,248,0.4,0.9,55,0.00,,,0.00,WUHU216HW,2013-11-26 00:23:00,
2013-11-25 17:28:00,57.2,41.7,27.50,SW,225,0.0,0.9,56,0.00,,,0.00,WUHU216HW,2013-11-26 00:28:00,
2013-11-25 17:33:00,57.1,41.5,27.50,SW,225,0.0,0.9,56,0.00,,,0.00,WUHU216HW,2013-11-26 00:33:00,
2013-11-25 17:38:00,56.9,41.3,27.50,SW,225,0.0,0.9,56,0.00,,,0.00,WUHU216HW,2013-11-26 00:38:00,
2013-11-25 17:43:00,56.7,41.6,27.50,SW,225,0.0,0.4,57,0.00,,,0.00,WUHU216HW,2013-11-26 00:43:00,
2013-11-25 17:48:00,56.5,41.4,27.50,SW,225,0.0,0.0,57,0.00,,,0.00,WUHU216HW,2013-11-26 00:48:00,
2013-11-25 17:53:00,56.3,41.2,27.51,SW,225,0.0,0.0,57,0.00,,,0.00,WUHU216HW,2013-11-26 00:53:00,
2013-11-25 17:58:00,56.0,41.4,27.51,SW,225,0.0,0.0,58,0.00,,,0.00,WUHU216HW,2013-11-26 00:58:00,
2013-11-25 18:03:00,55.8,41.2,27.51,SSW,203,0.0,0.0,58,0.00,,,0.00,WUHU216HW,2013-11-26 01:03:00,
2013-11-25 18:08:00,55.3,41.1,27.51,South,180,0.0,0.0,59,0.00,,,0.00,WUHU216HW,2013-11-26 01:08:00,
2013-11-25 18:13:00,54.9,41.3,27.52,South,180,0.0,0.0,60,0.00,,,0.00,WUHU216HW,2013-11-26 01:13:00,
2013-11-25 18:18:00,54.5,41.3,27.52,South,180,0.0,0.0,61,0.00,,,0.00,WUHU216HW,2013-11-26 01:18:00,
2013-11-25 18:23:00,54.0,41.2,27.51,South,180,0.0,0.0,62,0.00,,,0.00,WUHU216HW,2013-11-26 01:23:00,
2013-11-25 18:28:00,53.6,41.3,27.52,South,180,0.0,0.0,63,0.00,,,0.00,WUHU216HW,2013-11-26 01:28:00,
2013-11-25 18:33:00,53.3,41.4,27.52,South,180,0.0,0.0,64,0.00,,,0.00,WUHU216HW,2013-11-26 01:33:00,
2013-11-25 18:38:00,53.1,41.2,27.52,South,180,0.0,0.0,64,0.00,,,0.00,WUHU216HW,2013-11-26 01:38:00,
2013-11-25 18:43:00,52.9,41.4,27.52,NE,45,0.0,0.2,65,0.00,,,0.00,WUHU216HW,2013-11-26 01:43:00,
2013-11-25 18:48:00,52.7,41.3,27.52,ENE,68,0.7,0.7,65,0.00,,,0.00,WUHU216HW,2013-11-26 01:48:00,
2013-11-25 18:53:00,52.6,41.5,27.53,ENE,68,0.0,0.7,66,0.00,,,0.00,WUHU216HW,2013-11-26 01:53:00,
2013-11-25 18:58:00,52.4,41.3,27.53,South,180,0.0,0.7,66,0.00,,,0.00,WUHU216HW,2013-11-26 01:58:00,
2013-11-25 19:03:00,52.4,41.3,27.53,SE,135,0.0,0.4,66,0.00,,,0.00,WUHU216HW,2013-11-26 02:03:00,
2013-11-25 19:08:00,52.2,41.1,27.53,SE,135,0.0,0.4,66,0.00,,,0.00,WUHU216HW,2013-11-26 02:08:00,
2013-11-25 19:13:00,52.2,41.6,27.53,SE,135,0.0,0.0,67,0.00,,,0.00,WUHU216HW,2013-11-26 02:13:00,
2013-11-25 19:18:00,52.0,41.4,27.53,SW,225,0.0,0.2,67,0.00,,,0.00,WUHU216HW,2013-11-26 02:18:00,
2013-11-25 19:23:00,51.7,41.5,27.54,East,90,0.0,0.2,68,0.00,,,0.00,WUHU216HW,2013-11-26 02:23:00,
2013-11-25 19:28:00,51.5,41.3,27.54,East,90,0.0,0.0,68,0.00,,,0.00,WUHU216HW,2013-11-26 02:28:00,
2013-11-25 19:33:00,51.3,41.1,27.54,NNE,23,0.0,0.4,68,0.00,,,0.00,WUHU216HW,2013-11-26 02:33:00,
2013-11-25 19:38:00,51.1,41.0,27.54,NNE,23,0.0,0.4,68,0.00,,,0.00,WUHU216HW,2013-11-26 02:38:00,
2013-11-25 19:43:00,51.1,41.0,27.54,NNE,23,0.0,0.0,68,0.00,,,0.00,WUHU216HW,2013-11-26 02:43:00,
2013-11-25 19:48:00,50.9,40.8,27.54,NE,45,0.4,0.4,68,0.00,,,0.00,WUHU216HW,2013-11-26 02:48:00,
2013-11-25 19:53:00,50.8,40.6,27.54,NE,45,0.0,0.4,68,0.00,,,0.00,WUHU216HW,2013-11-26 02:53:00,
2013-11-25 19:58:00,50.6,40.9,27.54,NE,45,0.0,0.0,69,0.00,,,0.00,WUHU216HW,2013-11-26 02:58:00,
2013-11-25 20:03:00,50.4,40.7,27.54,NE,45,0.0,0.0,69,0.00,,,0.00,WUHU216HW,2013-11-26 03:03:00,
2013-11-25 20:08:00,50.2,40.5,27.54,NE,45,0.0,0.0,69,0.00,,,0.00,WUHU216HW,2013-11-26 03:08:00,
2013-11-25 20:13:00,50.2,40.5,27.54,NE,45,0.0,0.0,69,0.00,,,0.00,WUHU216HW,2013-11-26 03:13:00,
2013-11-25 20:18:00,50.2,40.5,27.55,ESE,113,0.0,0.0,69,0.00,,,0.00,WUHU216HW,2013-11-26 03:18:00,
2013-11-25 20:23:00,50.0,40.3,27.54,ESE,113,0.0,0.0,69,0.00,,,0.00,WUHU216HW,2013-11-26 03:23:00,
2013-11-25 20:28:00,49.7,40.0,27.54,ESE,113,0.0,0.0,69,0.00,,,0.00,WUHU216HW,2013-11-26 03:28:00,
2013-11-25 20:33:00,49.5,40.1,27.54,ESE,113,0.0,0.0,70,0.00,,,0.00,WUHU216HW,2013-11-26 03:33:00,
2013-11-25 20:38:00,49.3,40.0,27.54,East,90,0.0,0.0,70,0.00,,,0.00,WUHU216HW,2013-11-26 03:38:00,
2013-11-25 20:43:00,49.0,39.6,27.54,NE,45,0.0,0.2,70,0.00,,,0.00,WUHU216HW,2013-11-26 03:43:00,
2013-11-25 20:48:00,49.0,39.6,27.54,North,0,0.0,0.2,70,0.00,,,0.00,WUHU216HW,2013-11-26 03:48:00,
2013-11-25 20:53:00,49.0,39.6,27.54,North,0,0.0,0.0,70,0.00,,,0.00,WUHU216HW,2013-11-26 03:53:00,
2013-11-25 20:58:00,49.0,39.6,27.54,North,0,0.0,0.0,70,0.00,,,0.00,WUHU216HW,2013-11-26 03:58:00,
2013-11-25 21:03:00,49.0,39.6,27.55,North,0,0.0,0.0,70,0.00,,,0.00,WUHU216HW,2013-11-26 04:03:00,
2013-11-25 21:08:00,48.6,39.2,27.55,SSE,158,0.7,0.9,70,0.00,,,0.00,WUHU216HW,2013-11-26 04:08:00,
2013-11-25 21:13:00,48.6,38.9,27.55,SSW,203,0.0,0.9,69,0.00,,,0.00,WUHU216HW,2013-11-26 04:13:00,
2013-11-25 21:18:00,48.6,39.2,27.55,SW,225,0.0,0.7,70,0.00,,,0.00,WUHU216HW,2013-11-26 04:18:00,
2013-11-25 21:23:00,48.6,39.2,27.55,ENE,68,0.0,0.0,70,0.00,,,0.00,WUHU216HW,2013-11-26 04:23:00,
2013-11-25 21:28:00,48.6,39.2,27.55,NE,45,0.7,0.7,70,0.00,,,0.00,WUHU216HW,2013-11-26 04:28:00,
2013-11-25 21:33:00,48.4,39.4,27.55,NE,45,0.0,0.7,71,0.00,,,0.00,WUHU216HW,2013-11-26 04:33:00,
2013-11-25 21:38:00,48.2,39.3,27.56,NE,45,0.0,0.4,71,0.00,,,0.00,WUHU216HW,2013-11-26 04:38:00,
2013-11-25 21:43:00,48.2,39.3,27.56,NE,45,0.0,0.0,71,0.00,,,0.00,WUHU216HW,2013-11-26 04:43:00,
2013-11-25 21:48:00,48.1,39.1,27.56,NNE,23,0.2,0.2,71,0.00,,,0.00,WUHU216HW,2013-11-26 04:48:00,
2013-11-25 21:53:00,47.9,38.9,27.56,NW,315,0.0,0.4,71,0.00,,,0.00,WUHU216HW,2013-11-26 04:53:00,
2013-11-25 21:58:00,47.7,38.7,27.56,North,0,0.0,0.4,71,0.00,,,0.00,WUHU216HW,2013-11-26 04:58:00,
2013-11-25 22:01:00,47.5,38.6,27.56,North,0,0.0,0.4,71,0.00,,,0.00,WUHU216HW,2013-11-26 05:01:00,
2013-11-25 22:02:00,47.5,38.6,27.56,North,0,0.0,0.4,71,0.00,,,0.00,WUHU216HW,2013-11-26 05:02:00,
2013-11-25 22:07:00,47.3,38.8,27.56,WNW,293,0.0,0.0,72,0.00,,,0.00,WUHU216HW,2013-11-26 05:07:00,
2013-11-25 22:12:00,47.3,38.8,27.56,NE,45,0.0,0.2,72,0.00,,,0.00,WUHU216HW,2013-11-26 05:12:00,
2013-11-25 22:17:00,47.2,38.6,27.56,NE,45,0.0,0.2,72,0.00,,,0.00,WUHU216HW,2013-11-26 05:17:00,
2013-11-25 22:22:00,47.2,38.6,27.56,NE,45,0.0,0.0,72,0.00,,,0.00,WUHU216HW,2013-11-26 05:22:00,
2013-11-25 22:27:00,47.0,38.4,27.56,ESE,113,0.0,0.4,72,0.00,,,0.00,WUHU216HW,2013-11-26 05:27:00,
2013-11-25 22:32:00,46.8,38.6,27.56,ESE,113,0.0,0.4,73,0.00,,,0.00,WUHU216HW,2013-11-26 05:32:00,
2013-11-25 22:37:00,46.4,38.3,27.56,ESE,113,0.0,0.0,73,0.00,,,0.00,WUHU216HW,2013-11-26 05:37:00,
2013-11-25 22:42:00,46.4,38.3,27.56,East,90,0.0,0.0,73,0.00,,,0.00,WUHU216HW,2013-11-26 05:42:00,
2013-11-25 22:47:00,46.3,38.4,27.55,East,90,0.0,0.0,74,0.00,,,0.00,WUHU216HW,2013-11-26 05:47:00,
2013-11-25 22:52:00,46.3,38.4,27.55,SE,135,0.0,0.4,74,0.00,,,0.00,WUHU216HW,2013-11-26 05:52:00,
2013-11-25 22:57:00,46.1,38.3,27.56,NE,45,0.0,0.4,74,0.00,,,0.00,WUHU216HW,2013-11-26 05:57:00,
2013-11-25 23:02:00,46.1,38.3,27.55,SSE,158,0.4,0.4,74,0.00,,,0.00,WUHU216HW,2013-11-26 06:02:00,
2013-11-25 23:07:00,46.1,38.3,27.56,South,180,0.2,0.4,74,0.00,,,0.00,WUHU216HW,2013-11-26 06:07:00,
2013-11-25 23:12:00,46.1,38.3,27.56,SW,225,0.0,1.8,74,0.00,,,0.00,WUHU216HW,2013-11-26 06:12:00,
2013-11-25 23:17:00,45.9,38.1,27.56,SW,225,0.0,1.8,74,0.00,,,0.00,WUHU216HW,2013-11-26 06:17:00,
2013-11-25 23:22:00,45.9,38.1,27.56,East,90,0.0,0.2,74,0.00,,,0.00,WUHU216HW,2013-11-26 06:22:00,
2013-11-25 23:27:00,45.7,38.3,27.56,North,0,0.4,0.4,75,0.00,,,0.00,WUHU216HW,2013-11-26 06:27:00,
2013-11-25 23:32:00,45.7,38.3,27.56,North,0,0.7,0.7,75,0.00,,,0.00,WUHU216HW,2013-11-26 06:32:00,
2013-11-25 23:37:00,45.7,38.3,27.57,North,0,0.0,0.7,75,0.00,,,0.00,WUHU216HW,2013-11-26 06:37:00,
2013-11-25 23:42:00,45.5,38.1,27.57,NW,315,0.0,0.0,75,0.00,,,0.00,WUHU216HW,2013-11-26 06:42:00,
2013-11-25 23:47:00,45.5,38.1,27.57,NW,315,0.0,0.0,75,0.00,,,0.00,WUHU216HW,2013-11-26 06:47:00,
2013-11-25 23:52:00,45.4,37.5,27.57,NW,315,0.0,0.0,74,0.00,,,0.00,WUHU216HW,2013-11-26 06:52:00,
2013-11-25 23:57:00,45.2,37.4,27.56,NW,315,0.0,0.0,74,0.00,,,0.00,WUHU216HW,2013-11-26 06:57:00,